Davenport, IA

5:32 AM CDT on August 19, 2017 (GMT -0500)
Davenport Municipal

Weather History for KDVN - January, 2013

Change the Weather History Date:

Thursday, January 17, 2013

  Actual Average Record
Temperature  
Mean Temperature 27 °F 21 °F  
Max Temperature 35 °F 30 °F 55 °F (1973)
Min Temperature 18 °F 12 °F -14 °F (1982)
Degree Days  
Heating Degree Days 38 44  
Month to date heating degree days 677 747  
Since 1 July heating degree days 3119 3327  
Cooling Degree Days 0 0  
Month to date cooling degree days 0 0  
Year to date cooling degree days 0 0  
Moisture  
Dew Point 17 °F    
Average Humidity 67    
Maximum Humidity 85    
Minimum Humidity 49    
Precipitation  
Precipitation 0.00 in 0.04 in 0.49 in (1980)
Month to date precipitation 0.46 0.41  
Year to date precipitation 0.46 0.41  
Snow  
Snow 0.00 in - - ()
Month to date snowfall 0.8  
Since 1 July snowfall 6.4  
Snow Depth 0.00 in    
Sea Level Pressure  
Sea Level Pressure 30.35 in    
Wind  
Wind Speed 9 mph (NW)    
Max Wind Speed 18 mph    
Max Gust Speed 24 mph    
Visibility 10 miles    
Events      
T = Trace of Precipitation, MM = Missing Value Source: NWS Daily Summary

Daily Weather History Graph

Daily Weather History Graph

Search for Another Location

Airport or City:

Trip Planner

Search our weather history database for the weather conditions in past years. The results will help you decide how hot, cold, wet, or windy it might be!

Date:

Astronomy

Jan. 17, 2013 Rise Set
Actual Time 7:25 AM CST 4:59 PM CST
Civil Twilight 6:55 AM CST 5:30 PM CST
Nautical Twilight 6:21 AM CST 6:04 PM CST
Astronomical Twilight 5:47 AM CST 6:37 PM CST
Moon 10:26 AM CST (1/17) 11:57 PM CST (1/17)
Length of Visible Light 10h 35m
Length of Day
9h 34m
Waxing Crescent, 38% of the Moon is Illuminated
Jan 17
Waxing Crescent
Jan 18
First Quarter
Jan 26
Full
Feb 3
Last Quarter
Feb 10
New

Hourly Weather History & Observations

Time (CST) Temp. Windchill Dew Point Humidity Pressure Visibility Wind Dir Wind Speed Gust Speed Precip Events Conditions
12:52 AM 34.0 °F 25.5 °F 28.0 °F 79% 30.17 in 10.0 mi NNW 11.5 mph - N/A   Overcast
1:19 AM 32.0 °F 24.8 °F 26.6 °F 80% 30.16 in 10.0 mi NNW 8.1 mph - N/A   Scattered Clouds
1:44 AM 30.2 °F 21.9 °F 26.6 °F 86% 30.17 in 10.0 mi NW 9.2 mph - N/A   Mostly Cloudy
1:52 AM 30.9 °F 22.8 °F 26.1 °F 82% 30.20 in 10.0 mi NNW 9.2 mph - N/A   Scattered Clouds
2:52 AM 28.0 °F 18.6 °F 23.0 °F 81% 30.24 in 9.0 mi NNW 10.4 mph - N/A   Mostly Cloudy
3:21 AM 26.6 °F 18.2 °F 21.2 °F 80% 30.22 in 8.0 mi NNW 8.1 mph - N/A   Partly Cloudy
3:52 AM 25.0 °F 14.8 °F 19.9 °F 81% 30.25 in 8.0 mi NNW 10.4 mph - N/A   Clear
4:52 AM 24.1 °F 13.7 °F 18.0 °F 77% 30.29 in 10.0 mi NNW 10.4 mph - N/A   Clear
5:52 AM 21.9 °F 9.8 °F 14.0 °F 72% 30.32 in 10.0 mi NNW 12.7 mph - N/A   Clear
6:52 AM 19.0 °F 11.1 °F 10.9 °F 71% 30.35 in 10.0 mi NNW 5.8 mph - N/A   Clear
7:52 AM 19.0 °F 11.1 °F 10.0 °F 68% 30.36 in 10.0 mi NW 5.8 mph - N/A   Clear
8:52 AM 21.9 °F 10.4 °F 10.9 °F 63% 30.40 in 10.0 mi NNW 11.5 mph - N/A   Clear
9:52 AM 24.1 °F 13.1 °F 10.9 °F 57% 30.44 in 10.0 mi NNW 11.5 mph - N/A   Clear
10:52 AM 25.0 °F 15.5 °F 12.0 °F 58% 30.44 in 10.0 mi NW 9.2 mph - N/A   Clear
11:52 AM 28.0 °F 18.1 °F 12.0 °F 51% 30.43 in 10.0 mi NW 11.5 mph - N/A   Clear
12:52 PM 30.0 °F 21.7 °F 14.0 °F 51% 30.41 in 10.0 mi NW 9.2 mph - N/A   Clear
1:52 PM 28.9 °F 19.2 °F 12.9 °F 51% 30.40 in 10.0 mi NW 11.5 mph - N/A   Mostly Cloudy
2:52 PM 30.9 °F 21.2 °F 15.1 °F 52% 30.40 in 10.0 mi West 12.7 mph - N/A   Clear
3:52 PM 30.9 °F 21.2 °F 16.0 °F 54% 30.40 in 10.0 mi WNW 12.7 mph - N/A   Clear
4:52 PM 30.0 °F 23.2 °F 19.0 °F 64% 30.41 in 10.0 mi WNW 6.9 mph - N/A   Clear
5:52 PM 27.0 °F 19.5 °F 19.0 °F 72% 30.43 in 10.0 mi WNW 6.9 mph - N/A   Clear
6:52 PM 26.1 °F 17.6 °F 17.1 °F 69% 30.45 in 10.0 mi WNW 8.1 mph - N/A   Clear
7:52 PM 21.9 °F 13.4 °F 17.1 °F 82% 30.45 in 10.0 mi West 6.9 mph - N/A   Clear
8:52 PM 21.9 °F - 16.0 °F 78% 30.45 in 10.0 mi Calm Calm - N/A   Clear
9:52 PM 21.0 °F 14.6 °F 16.0 °F 81% 30.44 in 10.0 mi WSW 4.6 mph - N/A   Clear
10:52 PM 21.0 °F 14.6 °F 15.1 °F 78% 30.45 in 10.0 mi SW 4.6 mph - N/A   Clear
11:52 PM 21.9 °F 17.2 °F 16.0 °F 78% 30.44 in 10.0 mi SW 3.5 mph - N/A   Partly Cloudy